"Platform","Saginaw Bay ReCON Buoy"
"NDBC ID","45163"
"Latitude (deg)",43.98440
"Longitude (deg)",-83.59753
"Water Depth (m)",12.7
"Sensor Device","Campbell CR1000X Logger analog input and Pololu ACS711EX current sensor"
"Sensor Type","Battery current"
"Sensor Units","amps (+=charging)"
"Measurement","2 minute average of data samples taken at 5 second interval"
"Time means","Time at beginning of averaging period (UTC time zone)"

"Note:","This data was collected for research purposes."
"Note:","Minimal quality checking has been performed so data may contain known or unknown errors."
"Note:","Data provided by NOAA. Please credit NOAA."
"Note:","For more info see www.glerl.noaa.gov/res/recon"

"Time (UTC)","Battery Current"
"YYYY/MM/DD HH:MM","amps"
2024/05/16 00:04, 0.2499763
2024/05/16 00:06, 0.2190254
2024/05/16 00:08, 0.1400309
2024/05/16 00:10, 0.1099419
2024/05/16 00:12, 0.02323174
2024/05/16 00:14, -0.1332615
2024/05/16 00:16, -0.7090548
2024/05/16 00:18, -0.8885844
2024/05/16 00:20, -0.9089989
2024/05/16 00:22, -0.9504291
2024/05/16 00:24, -0.4823705
2024/05/16 00:26, -0.401447
2024/05/16 00:28, -0.4308753
2024/05/16 00:30, -0.4368869
2024/05/16 00:32, -0.4459016
2024/05/16 00:34, -0.4759949
2024/05/16 00:36, -1.111113
2024/05/16 00:38, -1.247503
2024/05/16 00:40, -1.260953
2024/05/16 00:42, -1.160089
2024/05/16 00:44, -0.7030746
2024/05/16 00:46, -0.6607165
2024/05/16 00:48, -0.6729858
2024/05/16 00:50, -0.6740161
2024/05/16 00:52, -0.7245102
2024/05/16 00:54, -0.7675334
2024/05/16 00:56, -1.359099
2024/05/16 00:58, -1.49731
2024/05/16 01:00, -1.532633
2024/05/16 01:02, -1.410383
2024/05/16 01:04, -0.9044454
2024/05/16 01:06, -0.8093283
2024/05/16 01:08, -0.8086764
2024/05/16 01:10, -0.7971136
2024/05/16 01:12, -0.7958605
2024/05/16 01:14, -0.8046654
2024/05/16 01:16, -1.417392
2024/05/16 01:18, -1.541479
2024/05/16 01:20, -1.521825
2024/05/16 01:22, -1.432094
2024/05/16 01:24, -0.8840134
2024/05/16 01:26, -0.8306164
2024/05/16 01:28, -0.8188489
2024/05/16 01:30, -0.7893762
2024/05/16 01:32, -0.8271403
2024/05/16 01:34, -0.7900411
2024/05/16 01:36, -1.400659
2024/05/16 01:38, -1.517541
2024/05/16 01:40, -1.539515
2024/05/16 01:42, -1.400677
2024/05/16 01:44, -0.9306574
2024/05/16 01:46, -0.8404243
2024/05/16 01:48, -0.8119872
2024/05/16 01:50, -0.8048301
2024/05/16 01:52, -0.7999675
2024/05/16 01:54, -0.828739
2024/05/16 01:56, -1.432516
2024/05/16 01:58, -1.530336
2024/05/16 02:00, -1.532068
2024/05/16 02:02, -1.410958
2024/05/16 02:04, -0.9263038
2024/05/16 02:06, -0.8201805
2024/05/16 02:08, -0.810803
2024/05/16 02:10, -0.8037722
2024/05/16 02:12, -0.8117551
2024/05/16 02:14, -0.812301
2024/05/16 02:16, -1.409203
2024/05/16 02:18, -1.546555
2024/05/16 02:20, -1.522226
2024/05/16 02:22, -1.410233
2024/05/16 02:24, -0.9086841
2024/05/16 02:26, -0.821837
2024/05/16 02:28, -0.8283277
2024/05/16 02:30, -0.7929316
2024/05/16 02:32, -0.807293
2024/05/16 02:34, -0.8091125
2024/05/16 02:36, -1.407987
2024/05/16 02:38, -1.522287
2024/05/16 02:40, -1.541399
2024/05/16 02:42, -1.398974
2024/05/16 02:44, -0.9253163
2024/05/16 02:46, -0.8191111
2024/05/16 02:48, -0.8188182
2024/05/16 02:50, -0.8157621
2024/05/16 02:52, -0.8094544
2024/05/16 02:54, -0.8031878
2024/05/16 02:56, -1.383518
2024/05/16 02:58, -1.514064
2024/05/16 03:00, -1.53521
2024/05/16 03:02, -1.399594
2024/05/16 03:04, -0.9315822
2024/05/16 03:06, -0.8137079
2024/05/16 03:08, -0.8212488
2024/05/16 03:10, -0.8105606
2024/05/16 03:12, -0.7767389
2024/05/16 03:14, -0.8073929
2024/05/16 03:16, -1.430723
2024/05/16 03:18, -1.539361
2024/05/16 03:20, -1.513189
2024/05/16 03:22, -1.39532
2024/05/16 03:24, -0.8843821
2024/05/16 03:26, -0.8276389
2024/05/16 03:28, -0.8109886
2024/05/16 03:30, -0.8093812
2024/05/16 03:32, -0.828263
2024/05/16 03:34, -0.8385835
2024/05/16 03:36, -1.43193
2024/05/16 03:38, -1.547076
2024/05/16 03:40, -1.536967
2024/05/16 03:42, -1.430643
2024/05/16 03:44, -0.9010261
2024/05/16 03:46, -0.8225474
2024/05/16 03:48, -0.8025841
2024/05/16 03:50, -0.8069844
2024/05/16 03:52, -0.7940423
2024/05/16 03:54, -0.8136046
2024/05/16 03:56, -1.438388
2024/05/16 03:58, -1.542537
2024/05/16 04:00, -1.545202
2024/05/16 04:02, -1.402238
2024/05/16 04:04, -0.8957813
2024/05/16 04:06, -0.8332462
2024/05/16 04:08, -0.8189153
2024/05/16 04:10, -0.8170657
2024/05/16 04:12, -0.81684
2024/05/16 04:14, -0.7960509
2024/05/16 04:16, -1.422942
2024/05/16 04:18, -1.541981
2024/05/16 04:20, -1.533011
2024/05/16 04:22, -1.397646
2024/05/16 04:24, -0.919475
2024/05/16 04:26, -0.8511129
2024/05/16 04:28, -0.8361776
2024/05/16 04:30, -0.8239727
2024/05/16 04:32, -0.828352
2024/05/16 04:34, -0.8192054
2024/05/16 04:36, -1.456388
2024/05/16 04:38, -1.567524
2024/05/16 04:40, -1.550316
2024/05/16 04:42, -1.406541
2024/05/16 04:44, -0.8871169
2024/05/16 04:46, -0.8404515
2024/05/16 04:48, -0.8103463
2024/05/16 04:50, -0.8451192
2024/05/16 04:52, -0.8301494
2024/05/16 04:54, -0.7861746
2024/05/16 04:56, -1.449869
2024/05/16 04:58, -1.553904
2024/05/16 05:00, -1.545727
2024/05/16 05:02, -1.398983
2024/05/16 05:04, -0.9083412
2024/05/16 05:06, -0.8444946
2024/05/16 05:08, -0.8161075
2024/05/16 05:10, -0.7973941
2024/05/16 05:12, -0.8242985
2024/05/16 05:14, -0.8171496
2024/05/16 05:16, -1.425127
2024/05/16 05:18, -1.560684
2024/05/16 05:20, -1.529986
2024/05/16 05:22, -1.403128
2024/05/16 05:24, -0.9439664
2024/05/16 05:26, -0.822541
2024/05/16 05:28, -0.8249338
2024/05/16 05:30, -0.7920654
2024/05/16 05:32, -0.8133436
2024/05/16 05:34, -0.8147712
2024/05/16 05:36, -1.437341
2024/05/16 05:38, -1.576261
2024/05/16 05:40, -1.570185
2024/05/16 05:42, -1.448877
2024/05/16 05:44, -0.927975
2024/05/16 05:46, -0.8480166
2024/05/16 05:48, -0.8334594
2024/05/16 05:50, -0.8436323
2024/05/16 05:52, -0.849673
2024/05/16 05:54, -0.8304696
2024/05/16 05:56, -1.434145
2024/05/16 05:58, -1.558192
2024/05/16 06:00, -1.548859
2024/05/16 06:02, -1.405793
2024/05/16 06:04, -0.9056029
2024/05/16 06:06, -0.8326623
2024/05/16 06:08, -0.8088531
2024/05/16 06:10, -0.8114803
2024/05/16 06:12, -0.7946336
2024/05/16 06:14, -0.824213
2024/05/16 06:16, -1.437173
2024/05/16 06:18, -1.568121
2024/05/16 06:20, -1.551657
2024/05/16 06:22, -1.42895
2024/05/16 06:24, -0.9181362
2024/05/16 06:26, -0.8460982
2024/05/16 06:28, -0.8043275
2024/05/16 06:30, -0.8096519
2024/05/16 06:32, -0.8295364
2024/05/16 06:34, -0.7982703
2024/05/16 06:36, -1.437282
2024/05/16 06:38, -1.567457
2024/05/16 06:40, -1.540909
2024/05/16 06:42, -1.41911
2024/05/16 06:44, -0.8814688
2024/05/16 06:46, -0.8373296
2024/05/16 06:48, -0.8207584
2024/05/16 06:50, -0.8259914
2024/05/16 06:52, -0.8145132
2024/05/16 06:54, -0.791008
2024/05/16 06:56, -1.465776
2024/05/16 06:58, -1.571615
2024/05/16 07:00, -1.533572
2024/05/16 07:02, -1.442981
2024/05/16 07:04, -0.9347117
2024/05/16 07:06, -0.8448717
2024/05/16 07:08, -0.8273402
2024/05/16 07:10, -0.8151797
2024/05/16 07:12, -0.824875
2024/05/16 07:14, -0.817505
2024/05/16 07:16, -1.461157
2024/05/16 07:18, -1.577956
2024/05/16 07:20, -1.565774
2024/05/16 07:22, -1.438306
2024/05/16 07:24, -0.9372893
2024/05/16 07:26, -0.8424186
2024/05/16 07:28, -0.8426721
2024/05/16 07:30, -0.8189913
2024/05/16 07:32, -0.8197356
2024/05/16 07:34, -0.8132147
2024/05/16 07:36, -1.438621
2024/05/16 07:38, -1.581214
2024/05/16 07:40, -1.547125
2024/05/16 07:42, -1.407854
2024/05/16 07:44, -0.9232701
2024/05/16 07:46, -0.8438577
2024/05/16 07:48, -0.8054382
2024/05/16 07:50, -0.8210078
2024/05/16 07:52, -0.8269058
2024/05/16 07:54, -0.8169551
2024/05/16 07:56, -1.441753
2024/05/16 07:58, -1.608441
2024/05/16 08:00, -1.529834
2024/05/16 08:02, -1.425785
2024/05/16 08:04, -0.9092939
2024/05/16 08:06, -0.8263339
2024/05/16 08:08, -0.8012039
2024/05/16 08:10, -0.8247284
2024/05/16 08:12, -0.8201711
2024/05/16 08:14, -0.8233245
2024/05/16 08:16, -1.473079
2024/05/16 08:18, -1.585055
2024/05/16 08:20, -1.521108
2024/05/16 08:22, -1.440967
2024/05/16 08:24, -0.8946481
2024/05/16 08:26, -0.8467212
2024/05/16 08:28, -0.821085
2024/05/16 08:30, -0.8148857
2024/05/16 08:32, -0.807216
2024/05/16 08:34, -0.8210475
2024/05/16 08:36, -1.432081
2024/05/16 08:38, -1.563147
2024/05/16 08:40, -1.549831
2024/05/16 08:42, -1.441257
2024/05/16 08:44, -0.9075186
2024/05/16 08:46, -0.850274
2024/05/16 08:48, -0.8204715
2024/05/16 08:50, -0.8292737
2024/05/16 08:52, -0.8103294
2024/05/16 08:54, -0.8266966
2024/05/16 08:56, -1.471234
2024/05/16 08:58, -1.563152
2024/05/16 09:00, -1.547056
2024/05/16 09:02, -1.417285
2024/05/16 09:04, -0.9166167
2024/05/16 09:06, -0.8273702
2024/05/16 09:08, -0.8184145
2024/05/16 09:10, -0.8005599
2024/05/16 09:12, -0.8264206
2024/05/16 09:14, -0.8268594
2024/05/16 09:16, -1.458097
2024/05/16 09:18, -1.570823
2024/05/16 09:20, -1.531718
2024/05/16 09:22, -1.420813
2024/05/16 09:24, -0.8947347
2024/05/16 09:26, -0.8526118
2024/05/16 09:28, -0.8007311
2024/05/16 09:30, -0.8300026
2024/05/16 09:32, -0.8102426
2024/05/16 09:34, -0.8319378
2024/05/16 09:36, -1.458619
2024/05/16 09:38, -1.600207
2024/05/16 09:40, -1.554608
2024/05/16 09:42, -1.429922
2024/05/16 09:44, -0.9066634
2024/05/16 09:46, -0.8310302
2024/05/16 09:48, -0.8153686
2024/05/16 09:50, -0.8155224
2024/05/16 09:52, -0.8060166
2024/05/16 09:54, -0.8089675
2024/05/16 09:56, -1.450338
2024/05/16 09:58, -1.584194
2024/05/16 10:00, -1.539514
2024/05/16 10:02, -1.391551
2024/05/16 10:04, -0.9635901
2024/05/16 10:06, -0.8322952
2024/05/16 10:08, -0.7652214
2024/05/16 10:10, -0.757206
2024/05/16 10:12, -0.7078258
2024/05/16 10:14, -0.7150618
2024/05/16 10:16, -1.333994
2024/05/16 10:18, -1.398921
2024/05/16 10:20, -1.359056
2024/05/16 10:22, -1.182252
2024/05/16 10:24, -0.6092821
2024/05/16 10:26, -0.4675393
2024/05/16 10:28, -0.4124772
2024/05/16 10:30, -0.3849486
2024/05/16 10:32, -0.2860901
2024/05/16 10:34, -0.2299133
2024/05/16 10:36, -0.7208907
2024/05/16 10:38, -0.7617699
2024/05/16 10:40, -0.7204122
2024/05/16 10:42, -0.5366841
2024/05/16 10:44, -0.006895542
2024/05/16 10:46, 0.09909765
2024/05/16 10:48, 0.1117348
2024/05/16 10:50, 0.1622237
2024/05/16 10:52, 0.2464029
2024/05/16 10:54, 0.289742
2024/05/16 10:56, -0.2500781
2024/05/16 10:58, -0.3005722
2024/05/16 11:00, -0.2432204
2024/05/16 11:02, -0.1007285
2024/05/16 11:04, 0.3571135
2024/05/16 11:06, 0.4874267
2024/05/16 11:08, 0.5294808
2024/05/16 11:10, 0.5317738
2024/05/16 11:12, 0.7179546
2024/05/16 11:14, 0.7505967
2024/05/16 11:16, 0.2732524
2024/05/16 11:18, 0.1042402
2024/05/16 11:20, 0.1385473
2024/05/16 11:22, 0.2299876
2024/05/16 11:24, 0.7212851
2024/05/16 11:26, 0.843555
2024/05/16 11:28, 0.816831
2024/05/16 11:30, 0.8559074
2024/05/16 11:32, 0.9688759
2024/05/16 11:34, 0.9632947
2024/05/16 11:36, 0.5164318
2024/05/16 11:38, 0.4513978
2024/05/16 11:40, 0.5924425
2024/05/16 11:42, 1.507947
2024/05/16 11:44, 2.151166
2024/05/16 11:46, 2.07216
2024/05/16 11:48, 2.036445
2024/05/16 11:50, 1.996053
2024/05/16 11:52, 1.953082
2024/05/16 11:54, 1.9756
2024/05/16 11:56, 1.935644
2024/05/16 11:58, 1.906622
2024/05/16 12:00, 1.955177
2024/05/16 12:02, 1.939857
2024/05/16 12:04, 1.962243
2024/05/16 12:06, 1.924484
2024/05/16 12:08, 1.903817
2024/05/16 12:10, 1.927302
2024/05/16 12:12, 1.92536
2024/05/16 12:14, 1.911008
2024/05/16 12:16, 1.93428
2024/05/16 12:18, 1.89082
2024/05/16 12:20, 1.893061
2024/05/16 12:22, 1.825406
2024/05/16 12:24, 1.866496
2024/05/16 12:26, 1.863131
2024/05/16 12:28, 1.896151
2024/05/16 12:30, 1.914989
2024/05/16 12:32, 1.890692
2024/05/16 12:34, 1.898761
2024/05/16 12:36, 1.85185
2024/05/16 12:38, 1.836769
2024/05/16 12:40, 1.879915
2024/05/16 12:42, 1.736445
2024/05/16 12:44, 1.859963
2024/05/16 12:46, 1.846373
2024/05/16 12:48, 1.830427
2024/05/16 12:50, 1.755311
2024/05/16 12:52, 1.827537
2024/05/16 12:54, 1.836681
2024/05/16 12:56, 1.831751
2024/05/16 12:58, 1.828606
2024/05/16 13:00, 1.809135
2024/05/16 13:02, 1.808558
2024/05/16 13:04, 1.784205
2024/05/16 13:06, 1.766081
2024/05/16 13:08, 1.749553
2024/05/16 13:10, 1.754213
2024/05/16 13:12, 1.755912
2024/05/16 13:14, 1.747447
2024/05/16 13:16, 1.73059
2024/05/16 13:18, 1.756973
2024/05/16 13:20, 1.704783
2024/05/16 13:22, 1.715965
2024/05/16 13:24, 1.69314
2024/05/16 13:26, 1.714514
2024/05/16 13:28, 1.710365
2024/05/16 13:30, 1.689172
2024/05/16 13:32, 1.700956
2024/05/16 13:34, 1.700102
2024/05/16 13:36, 1.672573
2024/05/16 13:38, 1.668029
2024/05/16 13:40, 1.661617
2024/05/16 13:42, 1.675315
2024/05/16 13:44, 1.609435
2024/05/16 13:46, 1.592177
2024/05/16 13:48, 1.660335
2024/05/16 13:50, 1.582049
2024/05/16 13:52, 1.574289
2024/05/16 13:54, 1.571863
2024/05/16 13:56, 1.503032
2024/05/16 13:58, 1.47274
2024/05/16 14:00, 1.520847
2024/05/16 14:02, 1.514017
2024/05/16 14:04, 1.519501
2024/05/16 14:06, 1.18776
2024/05/16 14:08, 1.053818
2024/05/16 14:10, 1.06585
2024/05/16 14:12, 1.055395
2024/05/16 14:14, 1.093546
2024/05/16 14:16, 1.046594
2024/05/16 14:18, 1.075372
2024/05/16 14:20, 1.048643
2024/05/16 14:22, 1.071096
2024/05/16 14:24, 1.035074
2024/05/16 14:26, 1.055485
2024/05/16 14:28, 1.04088
2024/05/16 14:30, 0.9890257
2024/05/16 14:32, 1.062601
2024/05/16 14:34, 1.061898
2024/05/16 14:36, 1.017818
2024/05/16 14:38, 1.049098
2024/05/16 14:40, 1.041928
2024/05/16 14:42, 1.004614
2024/05/16 14:44, 1.00054
2024/05/16 14:46, 0.9966507
2024/05/16 14:48, 1.004801
2024/05/16 14:50, 1.011843
2024/05/16 14:52, 1.033978
2024/05/16 14:54, 1.01577
2024/05/16 14:56, 1.031261
2024/05/16 14:58, 0.9648694
2024/05/16 15:00, 1.016082
2024/05/16 15:02, 0.9394718
2024/05/16 15:04, 1.018286
2024/05/16 15:06, 0.9926314
2024/05/16 15:08, 0.9760315
2024/05/16 15:10, 0.9448702
2024/05/16 15:12, 0.9741977
2024/05/16 15:14, 0.9051558
2024/05/16 15:16, 0.9477856
2024/05/16 15:18, 0.9225626
2024/05/16 15:20, 0.9261813
2024/05/16 15:22, 0.9121022
2024/05/16 15:24, 0.9381098
2024/05/16 15:26, 0.9295644
2024/05/16 15:28, 0.9472461
2024/05/16 15:30, 0.9319396
2024/05/16 15:32, 0.9210494
2024/05/16 15:34, 0.9197802
2024/05/16 15:36, 0.9083825
2024/05/16 15:38, 0.9097126
2024/05/16 15:40, 0.9161152
2024/05/16 15:42, 0.8814634
2024/05/16 15:44, 0.9294994
2024/05/16 15:46, 0.9008486
2024/05/16 15:48, 0.9052711
2024/05/16 15:50, 0.8974932
2024/05/16 15:52, 0.8889124
2024/05/16 15:54, 0.8766549
2024/05/16 15:56, 0.8911286
2024/05/16 15:58, 0.8726717
2024/05/16 16:00, 0.8081617
2024/05/16 16:02, 0.8500467
2024/05/16 16:04, 0.8666983
2024/05/16 16:06, 0.8866894
2024/05/16 16:08, 0.8917046
2024/05/16 16:10, 0.8325089
2024/05/16 16:12, 0.883018
2024/05/16 16:14, 0.8521114
2024/05/16 16:16, 0.8453102
2024/05/16 16:18, 0.8205507
2024/05/16 16:20, 0.8414743
2024/05/16 16:22, 0.8541749
2024/05/16 16:24, 0.858727
2024/05/16 16:26, 0.8530985
2024/05/16 16:28, 0.8691172
2024/05/16 16:30, 0.8304384
2024/05/16 16:32, 0.8324943
2024/05/16 16:34, 0.8675514
2024/05/16 16:36, 0.8174265
2024/05/16 16:38, 0.8122238
2024/05/16 16:40, 0.8498614
2024/05/16 16:42, 0.845477
2024/05/16 16:44, 0.8110637
2024/05/16 16:46, 0.803519
2024/05/16 16:48, 0.8240826
2024/05/16 16:50, 0.8426073
2024/05/16 16:52, 0.8220725
2024/05/16 16:54, 0.8215672
2024/05/16 16:56, 0.8321684
2024/05/16 16:58, 0.8158078
2024/05/16 17:00, 0.8086375
2024/05/16 17:02, 0.8289669
2024/05/16 17:04, 0.8070526
2024/05/16 17:06, 0.8031549
2024/05/16 17:08, 0.7823571
2024/05/16 17:10, 0.7885501
2024/05/16 17:12, 0.7979316
2024/05/16 17:14, 0.8016257
2024/05/16 17:16, 0.8109755
2024/05/16 17:18, 0.7978584
2024/05/16 17:20, 0.8066924
2024/05/16 17:22, 0.7526352
2024/05/16 17:24, 0.7740669
2024/05/16 17:26, 0.7607113
2024/05/16 17:28, 0.7723546
2024/05/16 17:30, 0.7428128
2024/05/16 17:32, 0.761476
2024/05/16 17:34, 0.7700277
2024/05/16 17:36, 0.7697017
2024/05/16 17:38, 0.7510622
2024/05/16 17:40, 0.7686604
2024/05/16 17:42, 0.7538996
2024/05/16 17:44, 0.7602971
2024/05/16 17:46, 0.7467645
2024/05/16 17:48, 0.7568033
2024/05/16 17:50, 0.752685
2024/05/16 17:52, 0.7535085
2024/05/16 17:54, 0.7472379
2024/05/16 17:56, 0.7360367
2024/05/16 17:58, 0.7677929
2024/05/16 18:00, 0.7316492
2024/05/16 18:02, 0.7390224
2024/05/16 18:04, 0.7582618
2024/05/16 18:06, 0.7430945
2024/05/16 18:08, 0.7001878
2024/05/16 18:10, 0.7405534
2024/05/16 18:12, 0.7120952
2024/05/16 18:14, 0.740533
2024/05/16 18:16, 0.7421665
2024/05/16 18:18, 0.7205534
2024/05/16 18:20, 0.7315354
2024/05/16 18:22, 0.7126122
2024/05/16 18:24, 0.7515778
2024/05/16 18:26, 0.735425
2024/05/16 18:28, 0.7145346
2024/05/16 18:30, 0.7066722
2024/05/16 18:32, 0.7054059
2024/05/16 18:34, 0.7062689
2024/05/16 18:36, 0.7362507
2024/05/16 18:38, 0.7336964
2024/05/16 18:40, 0.7150524
2024/05/16 18:42, 0.7106166
2024/05/16 18:44, 0.750619
2024/05/16 18:46, 0.7246727
2024/05/16 18:48, 0.6830551
2024/05/16 18:50, 0.7235102
2024/05/16 18:52, 0.7284945
2024/05/16 18:54, 0.7124972
2024/05/16 18:56, 0.7231286
2024/05/16 18:58, 0.6842697
2024/05/16 19:00, 0.7035737
2024/05/16 19:02, 0.7165342
2024/05/16 19:04, 0.6951916
2024/05/16 19:06, 0.6998208
2024/05/16 19:08, 0.7069203
2024/05/16 19:10, 0.6728943
2024/05/16 19:12, 0.6409482
2024/05/16 19:14, 0.645967
2024/05/16 19:16, 0.6987702
2024/05/16 19:18, 0.699929
2024/05/16 19:20, 0.6642509
2024/05/16 19:22, 0.6593521
2024/05/16 19:24, 0.6313031
2024/05/16 19:26, 0.660633
2024/05/16 19:28, 0.681155
2024/05/16 19:30, 0.6751523
2024/05/16 19:32, 0.6477918
2024/05/16 19:34, 0.699065
2024/05/16 19:36, 0.6657058
2024/05/16 19:38, 0.5962038
2024/05/16 19:40, 0.663377
2024/05/16 19:42, 0.6578763
2024/05/16 19:44, 0.6761884
2024/05/16 19:46, 0.6556012
2024/05/16 19:48, 0.6312743
2024/05/16 19:50, 0.6553677
2024/05/16 19:52, 0.6400029
2024/05/16 19:54, 0.6158166
2024/05/16 19:56, 0.6265337
2024/05/16 19:58, 0.639252
2024/05/16 20:00, 0.6542282
2024/05/16 20:02, 0.5781066
2024/05/16 20:04, 0.6927011
2024/05/16 20:06, 0.637059
2024/05/16 20:08, 0.6315575
2024/05/16 20:10, 0.6505918
2024/05/16 20:12, 0.6155274
2024/05/16 20:14, 0.6717655
2024/05/16 20:16, 0.6609412
2024/05/16 20:18, 0.6018653
2024/05/16 20:20, 0.6488929
2024/05/16 20:22, 0.6080462
2024/05/16 20:24, 0.6427436
2024/05/16 20:26, 0.633551
2024/05/16 20:28, 0.6442974
2024/05/16 20:30, 0.6413269
2024/05/16 20:32, 0.6127395
2024/05/16 20:34, 0.6146796
2024/05/16 20:36, 0.6083181
2024/05/16 20:38, 0.5999293
2024/05/16 20:40, 0.6393797
2024/05/16 20:42, 0.6215281
2024/05/16 20:44, 0.6052986
2024/05/16 20:46, 0.5811794
2024/05/16 20:48, 0.6156475
2024/05/16 20:50, 0.6061294
2024/05/16 20:52, 0.6058661
2024/05/16 20:54, 0.606437
2024/05/16 20:56, 0.5995248
2024/05/16 20:58, 0.5981155
2024/05/16 21:00, 0.6067838
2024/05/16 21:02, 0.5911617
2024/05/16 21:04, 0.5861105
2024/05/16 21:06, 0.6069899
2024/05/16 21:08, 0.6157177
2024/05/16 21:10, 0.6201987
2024/05/16 21:12, 0.6189056
2024/05/16 21:14, 0.5881546
2024/05/16 21:16, 0.582021
2024/05/16 21:18, 0.5993431
2024/05/16 21:20, 0.6033211
2024/05/16 21:22, 0.5944546
2024/05/16 21:24, 0.5963776
2024/05/16 21:26, 0.5965751
2024/05/16 21:28, 0.5953819
2024/05/16 21:30, 0.6081477
2024/05/16 21:32, 0.6087713
2024/05/16 21:34, 0.5797065
2024/05/16 21:36, 0.5825303
2024/05/16 21:38, 0.5730715
2024/05/16 21:40, 0.5852206
2024/05/16 21:42, 0.57852
2024/05/16 21:44, 0.580157
2024/05/16 21:46, 0.5514246
2024/05/16 21:48, 0.5668104
2024/05/16 21:50, 0.5753123
2024/05/16 21:52, 0.5853428
2024/05/16 21:54, 0.5905524
2024/05/16 21:56, 0.5584918
2024/05/16 21:58, 0.5719915
2024/05/16 22:00, 0.5703358
2024/05/16 22:02, 0.5862183
2024/05/16 22:04, 0.5804266
2024/05/16 22:06, 0.5912435
2024/05/16 22:08, 0.5481829
2024/05/16 22:10, 0.5700576
2024/05/16 22:12, 0.5511892
2024/05/16 22:14, 0.5510979
2024/05/16 22:16, 0.5611744
2024/05/16 22:18, 0.5448116
2024/05/16 22:20, 0.5604865
2024/05/16 22:22, 0.5547688
2024/05/16 22:24, 0.5549461
2024/05/16 22:26, 0.5495576
2024/05/16 22:28, 0.556727
2024/05/16 22:30, 0.5420004
2024/05/16 22:32, 0.5391612
2024/05/16 22:34, 0.4930107
2024/05/16 22:36, 0.542179
2024/05/16 22:38, 0.5535066
2024/05/16 22:40, 0.5594277
2024/05/16 22:42, 0.5393708
2024/05/16 22:44, 0.5532944
2024/05/16 22:46, 0.5706708
2024/05/16 22:48, 0.5580649
2024/05/16 22:50, 0.534055
2024/05/16 22:52, 0.5573819
2024/05/16 22:54, 0.5310903
2024/05/16 22:56, 0.5444126
2024/05/16 22:58, 0.5480239
2024/05/16 23:00, 0.5413214
2024/05/16 23:02, 0.5404766
2024/05/16 23:04, 0.5401821
2024/05/16 23:06, 0.5371756
2024/05/16 23:08, 0.5338388
2024/05/16 23:10, 0.5415058
2024/05/16 23:12, 0.5373424
2024/05/16 23:14, 0.5338574
2024/05/16 23:16, -0.02191552
2024/05/16 23:18, -0.1629787
2024/05/16 23:20, -0.1983717
2024/05/16 23:22, -0.118197
2024/05/16 23:24, 0.2266375
2024/05/16 23:26, 0.3478663
2024/05/16 23:28, 0.3506624
2024/05/16 23:30, 0.394377
2024/05/16 23:32, 0.3832987
2024/05/16 23:34, 0.3520908
2024/05/16 23:36, -0.2209313
2024/05/16 23:38, -0.4035944
2024/05/16 23:40, -0.3997289
2024/05/16 23:42, -0.3476138
2024/05/16 23:44, 0.05646594
2024/05/16 23:46, 0.05254173
2024/05/16 23:48, -0.007244746
2024/05/16 23:50, -0.06498528
2024/05/16 23:52, -0.1244445
2024/05/16 23:54, -0.1423229
2024/05/16 23:56, -0.7112066
2024/05/16 23:58, -0.803585
2024/05/17 00:00, -0.7611567
2024/05/17 00:02, -0.4555958
2024/05/17 00:04, 0.4103726
2024/05/17 00:06, 0.2027257
2024/05/17 00:08, 0.3918233
2024/05/17 00:10, 0.01791755
2024/05/17 00:12, -0.1951709
2024/05/17 00:14, -0.2602503
2024/05/17 00:16, -0.8579778
2024/05/17 00:18, -0.7649095
2024/05/17 00:20, 0.1719577
2024/05/17 00:22, 0.2362408
2024/05/17 00:24, 0.3126871
2024/05/17 00:26, 0.06808162
2024/05/17 00:28, 0.4626086
2024/05/17 00:30, 0.2205761
2024/05/17 00:32, -0.269125
2024/05/17 00:34, -0.4258973
2024/05/17 00:36, -1.046451
2024/05/17 00:38, -1.207418
2024/05/17 00:40, -1.225919
2024/05/17 00:42, -1.08792
2024/05/17 00:44, -0.6448534
2024/05/17 00:46, -0.6081019
2024/05/17 00:48, -0.6249401
2024/05/17 00:50, -0.6526262
2024/05/17 00:52, -0.6927121
2024/05/17 00:54, -0.7521972
2024/05/17 00:56, -1.367085
2024/05/17 00:58, -1.461366
2024/05/17 01:00, -1.494091
2024/05/17 01:02, -1.407539
2024/05/17 01:04, -0.9404755
2024/05/17 01:06, -0.8568873
2024/05/17 01:08, -0.8194346
2024/05/17 01:10, -0.8422148
2024/05/17 01:12, -0.8074602
2024/05/17 01:14, -0.8316377
2024/05/17 01:16, -1.45322
2024/05/17 01:18, -1.553989
2024/05/17 01:20, -1.528658
2024/05/17 01:22, -1.417081
2024/05/17 01:24, -0.9334264
2024/05/17 01:26, -0.855337
2024/05/17 01:28, -0.8189599
2024/05/17 01:30, -0.8171414
2024/05/17 01:32, -0.8383503
2024/05/17 01:34, -0.8483239
2024/05/17 01:36, -1.486941
2024/05/17 01:38, -1.54698
2024/05/17 01:40, -1.54558
2024/05/17 01:42, -1.451852
2024/05/17 01:44, -0.9165726
2024/05/17 01:46, -0.8737158
2024/05/17 01:48, -0.836092
2024/05/17 01:50, -0.825773
2024/05/17 01:52, -0.8410814
2024/05/17 01:54, -0.8451943
2024/05/17 01:56, -1.451537
2024/05/17 01:58, -1.572069
2024/05/17 02:00, -1.528886
2024/05/17 02:02, -1.414367
2024/05/17 02:04, -0.9219781
2024/05/17 02:06, -0.8611696
2024/05/17 02:08, -0.8268328
2024/05/17 02:10, -0.8218913
2024/05/17 02:12, -0.8392954
2024/05/17 02:14, -0.8383542
2024/05/17 02:16, -1.470523
2024/05/17 02:18, -1.518898
2024/05/17 02:20, -1.504639
2024/05/17 02:22, -1.418487
2024/05/17 02:24, -0.9079544
2024/05/17 02:26, -0.8369692
2024/05/17 02:28, -0.8105583
2024/05/17 02:30, -0.8228254
2024/05/17 02:32, -0.8480158
2024/05/17 02:34, -0.851247
2024/05/17 02:36, -1.433426